Regional Weather Roundup
Issued by NWS

Home | Current Version | Previous Version | Graphics & Text | Print | Product List | Glossary On
Versions: 1 2 3 4 5 6 7 8 9 10 11 12 13 14 15 16 17 18 19 20 21 22 23 24 25 26 27 28 29 30 31 32 33 34 35 36 37 38 39 40 41 42 43 44 45 46 47 48 49 50
000
ASUS43 KIND 302309
RWRIN

WEATHER ROUNDUP FOR INDIANA
NATIONAL WEATHER SERVICE INDIANAPOLIS IN
600 PM EST FRI JAN 30 2015

NOTE: "FAIR" INDICATES FEW OR NO CLOUDS BELOW 12,000 FEET WITH NO
SIGNIFICANT WEATHER AND/OR OBSTRUCTIONS TO VISIBILITY.

* - STATION DOES NOT REPORT WEATHER SUCH AS PRECIPITATION OR FOG.

+ - STATION NOT QUALITY CONTROLLED BY THE NATIONAL WEATHER SERVICE.
    USE DATA WITH CAUTION...ESPECIALLY DEWPOINT AND RELATIVE
    HUMIDITY OBSERVATIONS.

INZ001>003-010>013-019-020-310000-
NORTHWEST INDIANA

CITY           SKY/WX    TMP DP  RH WIND       PRES   REMARKS
GARY /AIRPORT/ CLEAR     27  12  54 NE5       30.45F WCI  21
KNOX *+        CLEAR     27   1  33 CALM      30.44S
LA PORTE +     CLEAR     26  15  61 CALM      30.44S
MICHIGAN CITY+ CLEAR     27  10  50 CALM      30.45F
MONTICELLO +   CLEAR     27  17  65 CALM      30.45S
RENSSELAER +   CLEAR     30  19  64 CALM      30.44F
VALPARAISO     CLEAR     26  13  57 CALM      30.44F

$$

LMZ046-743>745-310000-
SOUTHERN LAKE MICHIGAN

STATION/POSITION TIME  TEMP WIND        PRES
                       AIR  DIR/SP/G
                 (UTC) (F)  (DEG/KT/KT) (MB)
MICHIGAN CITY    2300   26   CALM  /  2   N/A

$$

INZ004-005-014>016-021>024-310000-
NORTH CENTRAL INDIANA

CITY           SKY/WX    TMP DP  RH WIND       PRES   REMARKS
ELKHART        MOCLDY    25  12  58 NW5       30.43F WCI  19
GOSHEN         CLOUDY    24  14  65 NW6       30.43F WCI  17
LOGANSPORT +   CLEAR     28  18  64 NW3       30.45F
PERU/GRISSOM   PTCLDY    27  16  63 NW3       30.43S
ROCHESTER +    PTCLDY    28  18  64 NW3       30.44F
SOUTH BEND     CLOUDY    25  14  63 NW7       30.44F WCI  17
WARSAW +       CLOUDY    27  16  63 NW6       30.43F WCI  20

$$

INZ006>009-017-018-025>027-310000-
NORTHEAST INDIANA

CITY           SKY/WX    TMP DP  RH WIND       PRES   REMARKS
ANGOLA *+      CLEAR     21  10  63 W5        30.41S WCI  15
AUBURN +       CLEAR     23  12  63 W6        30.43S WCI  16
FORT WAYNE     MOCLDY    24  13  62 NW7       30.45S WCI  16
HUNTINGTON +   CLOUDY    25  11  56 NW3       30.44S

$$

INZ028-029-035-036-043>045-051>053-310000-
WEST CENTRAL INDIANA

CITY           SKY/WX    TMP DP  RH WIND       PRES   REMARKS
GREENCASTLE +  CLEAR     30  14  51 N5        30.45S WCI  25
LAFAYETTE      CLEAR     27  17  66 CALM      30.46S
TERRE HAUTE    CLEAR     33  16  49 NW3       30.46S

$$

INZ030>032-037>040-046>048-054>057-064-065-310000-
CENTRAL INDIANA

CITY           SKY/WX    TMP DP  RH WIND       PRES   REMARKS
CP ATTERBURY + CLEAR     32  18  55 N5        30.45F WCI  27
COLUMBUS       CLEAR     30  16  55 N5        30.46S WCI  25
FRANKFORT +    CLEAR     28  20  73 NW5       30.46S WCI  22
GREENWOOD *+   CLEAR     30  14  51 NW5       30.45S WCI  25
INDIANAPOLIS   PTCLDY    26  15  63 NW6       30.44F WCI  19
-EAGLE CREEK   CLEAR     28  16  60 N6        30.44F WCI  22
KOKOMO *+      MOCLDY    28  16  59 NW3       30.44S
MARION +       PTCLDY    26  16  66 CALM      30.45S
MT COMFORT *+  PTCLDY    27  10  50 N5        30.45R WCI  21
SHELBYVILLE    CLEAR     31  17  56 N5        30.44S WCI  26
ZIONSVILLE +   CLEAR     28  17  63 N6        30.45R WCI  21

$$

INZ033-034-041-042-049-050-058-059-310000-
EAST CENTRAL INDIANA

CITY           SKY/WX    TMP DP  RH WIND       PRES   REMARKS
MUNCIE         PTCLDY    25  16  68 N7        30.44S WCI  17

$$

INZ060-061-067>069-081>083-085>088-310000-
SOUTHWEST INDIANA

CITY           SKY/WX    TMP DP  RH WIND       PRES   REMARKS
EVANSVILLE     CLEAR     38  21  50 N5        30.48S
HUNTINGBURG *+ CLEAR     36  18  48 NW7       30.47R
WASHINGTON +   CLEAR     34  16  47 W3        30.47R

$$

INZ062-063-066-070>080-084-089>092-310000-
SOUTH CENTRAL AND SOUTHEAST INDIANA

CITY           SKY/WX    TMP DP  RH WIND       PRES   REMARKS
BLOOMINGTON    CLEAR     32  15  49 E5        30.43F WCI  27
NORTH VERNON + CLEAR     30  18  59 NE6       30.45F WCI  24
SEYMOUR +      CLEAR     32  19  59 NE6       30.46R WCI  26

$$



USA.gov is the U.S. government's official web portal to all federal, state and local government web resources and services.